This is the latest recevied weather packets stored in our database for station/object DO2HBA-6. If no packets are shown the sender has not sent any weather packets the latest 1 day(s).
| Time | Temp. | Humidity | Pressure | Rain* | Wind** | Luminosity | Snow |
|---|---|---|---|---|---|---|---|
| 1778077564 | 26.67° C | 30% | 1004.9 hPa | 0 mm | - | - | - |
| 1778076663 | 26.67° C | 31% | 1005 hPa | 0 mm | - | - | - |
| 1778075762 | 26.67° C | 31% | 1005.2 hPa | 0 mm | - | - | - |
| 1778075462 | 26.67° C | 32% | 1005.2 hPa | 0 mm | - | - | - |
| 1778074561 | 26.11° C | 31% | 1005.4 hPa | 0 mm | - | - | - |
| 1778073360 | 25.56° C | 29% | 1005.6 hPa | 0 mm | - | - | - |
| 1778072459 | 25.56° C | 28% | 1005.8 hPa | 0 mm | - | - | - |
| 1778071558 | 25° C | 29% | 1006 hPa | 0 mm | - | - | - |
| 1778070657 | 25.56° C | 27% | 1006.2 hPa | 0 mm | - | - | - |
| 1778070357 | 25° C | 25% | 1006.1 hPa | 0 mm | - | - | - |
| 1778069456 | 25° C | 23% | 1006.7 hPa | 0 mm | - | - | - |
| 1778068555 | 24.44° C | 18% | 1006.7 hPa | 0 mm | - | - | - |
| 1778067354 | 24.44° C | 23% | 1007 hPa | 0 mm | - | - | - |
| 1778066453 | 25° C | 18% | 1007.1 hPa | 0 mm | - | - | - |
| 1778065552 | 25° C | 17% | 1007.2 hPa | 0 mm | - | - | - |
| 1778065252 | 25° C | 17% | 1007.2 hPa | 0 mm | - | - | - |
| 1778064651 | 24.44° C | 16% | 1007.5 hPa | 0 mm | - | - | - |
| 1778064351 | 24.44° C | 15% | 1007.5 hPa | 0 mm | - | - | - |
| 1778063750 | 24.44° C | 10% | 1007.6 hPa | 0 mm | - | - | - |
| 1778063450 | 23.89° C | 12% | 1007.5 hPa | 0 mm | - | - | - |
| 1778063150 | 23.89° C | 11% | 1007.7 hPa | 0 mm | - | - | - |
| 1778062549 | 23.89° C | 15% | 1007.8 hPa | 0 mm | - | - | - |
| 1778062249 | 23.89° C | 11% | 1007.9 hPa | 0 mm | - | - | - |
| 1778061649 | 22.78° C | 10% | 1007.9 hPa | 0 mm | - | - | - |
| 1778061348 | 22.78° C | 10% | 1007.9 hPa | 0 mm | - | - | - |
* Rain latest hour (hover to see other rain measurements)
** Current wind speed in m/s (hover to see current wind gust speed)